Stations météo

réclame
Mon MeteoGroup
Falsterbo A, Suède (2615): Température de l'air & dewpoint: 09.09.2019 12:00:00 - 15.09.2019 12:00:00 (CEST)Falsterbo A, Suède (2615): Vitesse du vent & gusts: 09.09.2019 12:00:00 - 15.09.2019 12:00:00 (CEST)Falsterbo A, Suède (2615): Direction du vent: 09.09.2019 12:00:00 - 15.09.2019 12:00:00 (CEST)Falsterbo A, Suède (2615): reduced air pressure: 09.09.2019 12:00:00 - 15.09.2019 12:00:00 (CEST)Falsterbo A, Suède (2615): visibility: 09.09.2019 12:00:00 - 15.09.2019 12:00:00 (CEST)Falsterbo A, Suède (2615): Quantités de précipitations: 09.09.2019 12:00:00 - 15.09.2019 12:00:00 (CEST)
Date & Time tt [°C] td [°C] ff [km/h] ff [knt] fx [km/h] fx [knt] dd ppp [hPa] vv [km] rr [mm]
15.09.2019 12:00:00 16,3 13,7 41 22 62 34 W 1012,2 22 0,0
15.09.2019 11:00:00 16,3 13,0 46 25 62 33 WSW 1012,0 20 0,0
15.09.2019 10:00:00 16,0 12,2 49 26 64 34 WSW 1012,2 24 0,0
15.09.2019 09:00:00 15,6 11,2 51 28 69 37 WSW 1013,3 28 0,0
15.09.2019 08:00:00 15,2 10,6 52 28 69 37 WSW 1013,8 31 0,0
15.09.2019 07:00:00 15,0 10,6 53 29 66 36 WSW 1014,3 29 0,0
15.09.2019 06:00:00 15,0 10,2 49 26 63 34 WSW 1015,9 34 0,0
15.09.2019 05:00:00 15,2 10,4 51 28 64 35 WSW 1017,5 42 0,0
15.09.2019 04:00:00 14,9 10,3 45 25 61 33 SW 1018,3 39 0,0
15.09.2019 03:00:00 15,0 10,2 48 26 66 35 SW 1019,9 41 0,0
15.09.2019 02:00:00 15,0 10,4 42 23 57 31 SW 1021,4 44 0,0
15.09.2019 01:00:00 15,3 9,6 46 25 56 31 WSW 1022,8 43 0,0
15.09.2019 00:00:00 15,2 10,0 41 22 51 28 WSW 1024,0 50 0,0
14.09.2019 23:00:00 15,0 9,8 35 19 45 25 SW 1024,4 48 0,0
14.09.2019 22:00:00 15,3 9,2 30 16 44 24 WSW 1026,2 50 0,0
14.09.2019 21:00:00 15,4 8,6 35 19 43 23 WSW 1026,5 50 0,0
14.09.2019 20:00:00 15,3 8,8 32 17 42 23 WSW 1027,4 47 0,0
14.09.2019 19:00:00 15,6 9,5 35 19 42 23 W 1027,7 48 0,0
14.09.2019 18:00:00 16,0 9,0 27 15 36 19 W 1028,3 45 0,0
14.09.2019 17:00:00 16,9 9,6 29 15 35 19 W 1029,0 47 0,0
14.09.2019 16:00:00 17,1 8,3 20 11 33 18 WNW 1029,6 35 0,0
14.09.2019 15:00:00 16,6 8,6 27 15 36 19 WNW 1030,5 39 0,0
14.09.2019 14:00:00 16,7 8,9 31 17 36 20 WNW 1030,9 37 0,0
14.09.2019 13:00:00 16,7 8,6 27 15 39 21 W 1031,3 33 0,0
14.09.2019 12:00:00 15,8 9,2 34 18 42 23 WNW 1031,6 29 0,0
14.09.2019 11:00:00 14,9 9,7 33 18 43 23 W 1031,9 27 0,0
14.09.2019 10:00:00 14,3 9,5 33 18 41 22 WNW 1032,0 22 0,0
14.09.2019 09:00:00 13,6 10,2 31 17 39 21 W 1031,6 21 0,0
14.09.2019 08:00:00 13,0 10,0 30 16 43 23 W 1031,2 21 0,0
14.09.2019 07:00:00 13,4 9,8 36 19 48 26 WNW 1031,2 20 0,0
14.09.2019 06:00:00 13,5 9,7 40 22 50 27 WNW 1030,9 20 0,0
14.09.2019 05:00:00 13,6 9,6 40 21 49 26 WNW 1030,8 21 0,0
14.09.2019 04:00:00 13,4 10,2 36 19 46 25 WNW 1030,8 20 0,0
14.09.2019 03:00:00 13,7 9,7 38 20 48 26 WNW 1030,5 23 0,0
14.09.2019 02:00:00 13,7 9,5 38 20 47 26 WNW 1030,6 23 0,0
14.09.2019 01:00:00 14,0 9,6 40 21 54 29 WNW 1030,4 22 0,0
14.09.2019 00:00:00 14,1 9,5 39 21 53 28 WNW 1030,3 25 0,0
13.09.2019 23:00:00 14,6 9,2 42 23 55 30 NW 1030,1 27 0,0
13.09.2019 22:00:00 14,9 9,3 41 22 53 28 WNW 1029,6 34 0,0
13.09.2019 21:00:00 15,2 8,7 44 24 55 30 WNW 1029,3 39 0,0
13.09.2019 20:00:00 15,7 9,1 44 24 56 31 WNW 1029,0 37 0,0
13.09.2019 19:00:00 16,0 8,7 39 21 55 30 WNW 1028,2 32 0,0
13.09.2019 18:00:00 16,5 9,0 40 21 58 31 WNW 1027,8 33 0,0
13.09.2019 17:00:00 17,0 8,7 43 23 58 32 WNW 1027,7 34 0,0
13.09.2019 16:00:00 17,0 8,7 44 24 55 30 WNW 1027,2 33 0,0
13.09.2019 15:00:00 17,1 8,5 46 25 56 30 WNW 1026,6 34 0,0
13.09.2019 14:00:00 16,9 9,3 46 25 56 30 WNW 1026,0 33 0,0
13.09.2019 13:00:00 16,8 9,0 45 25 59 32 NW 1025,4 28 0,0
13.09.2019 12:00:00 16,4 10,3 48 26 59 32 NW 1024,6 30 0,0
13.09.2019 11:00:00 16,0 9,9 51 27 59 32 NW 1023,7 34 0,0
13.09.2019 10:00:00 15,5 11,7 43 23 54 29 NW 1022,7 38 0,0
13.09.2019 09:00:00 15,0 12,3 38 20 48 26 NW 1021,7 48 0,0
13.09.2019 08:00:00 15,0 13,9 41 22 63 34 NNW 1020,6 50 0,0
13.09.2019 07:00:00 16,9 16,4 41 22 53 28 W 1019,0 10 0,2
13.09.2019 06:00:00 16,2 15,9 41 22 51 28 SW 1018,4 6 0,7
13.09.2019 05:00:00 16,9 14,7 36 19 49 26 SW 1018,7 20 0,0
13.09.2019 04:00:00 16,7 14,3 29 16 39 21 WSW 1020,0 21 0,0
13.09.2019 03:00:00 16,7 14,2 32 17 40 22 WSW 1020,8 23 0,0
13.09.2019 02:00:00 16,8 13,9 34 18 43 23 WSW 1021,4 26 0,0
13.09.2019 01:00:00 16,8 13,5 34 18 42 23 WSW 1021,9 28 0,0
13.09.2019 00:00:00 16,8 13,5 33 18 40 22 WSW 1022,3 24 0,0
12.09.2019 23:00:00 16,8 13,1 31 17 45 24 WSW 1023,0 35 0,0
12.09.2019 22:00:00 17,1 13,2 35 19 42 23 WSW 1023,2 32 0,0
12.09.2019 21:00:00 17,0 12,9 33 18 40 22 WSW 1023,2 36 0,0
12.09.2019 20:00:00 17,1 13,0 30 16 41 22 WSW 1023,1 31 0,0
12.09.2019 19:00:00 17,5 13,2 30 16 43 23 WSW 1022,8 36 0,0
12.09.2019 18:00:00 18,0 13,5 34 19 45 24 WSW 1022,9 31 0,0
12.09.2019 17:00:00 18,2 13,1 36 19 45 25 WSW 1022,8 36 0,0
12.09.2019 16:00:00 18,1 13,2 37 20 46 25 WSW 1023,0 38 0,0
12.09.2019 15:00:00 18,8 13,2 35 19 41 22 WSW 1022,8 35 0,0
12.09.2019 14:00:00 19,0 13,6 35 19 42 23 WSW 1022,9 31 0,0
12.09.2019 13:00:00 18,5 12,0 30 16 37 20 W 1022,9 39 0,0
12.09.2019 12:00:00 19,2 12,7 28 15 37 20 W 1022,7 30 0,0
12.09.2019 11:00:00 17,6 13,2 24 13 32 17 WSW 1022,3 26 0,0
12.09.2019 10:00:00 16,4 13,3 26 14 35 19 WSW 1022,0 22 0,0
12.09.2019 09:00:00 15,7 13,0 30 16 39 21 W 1021,4 19 0,0
12.09.2019 08:00:00 15,1 13,1 30 16 40 22 W 1020,8 14 0,0
12.09.2019 07:00:00 15,1 13,0 35 19 42 23 W 1020,0 17 0,0
12.09.2019 06:00:00 14,9 13,1 33 18 43 23 W 1019,3 16 0,0
12.09.2019 05:00:00 15,1 13,3 35 19 42 23 W 1018,7 17 0,0
12.09.2019 04:00:00 15,4 13,4 35 19 48 26 W 1018,1 19 0,0
12.09.2019 03:00:00 15,6 13,6 37 20 46 25 W 1017,6 31 0,0
12.09.2019 02:00:00 15,8 14,8 36 19 48 26 W 1016,7 38 0,0
12.09.2019 01:00:00 15,6 14,8 39 21 56 30 WSW 1016,2 44 0,1
12.09.2019 00:00:00 15,3 14,7 46 25 60 33 WSW 1016,0 33 0,2
11.09.2019 23:00:00 15,2 14,2 45 24 66 35 SW 1015,9 16 0,2
11.09.2019 22:00:00 15,6 13,3 54 29 69 38 SW 1016,0 23 0,0
11.09.2019 21:00:00 15,8 12,5 41 22 57 31 SW 1016,2 25 1,1
11.09.2019 20:00:00 16,4 12,0 45 25 58 31 SW 1016,4 18 0,6
11.09.2019 19:00:00 16,9 12,6 39 21 53 28 SSW 1016,2 25 0,0
11.09.2019 18:00:00 17,8 11,8 40 21 53 29 SSW 1016,2 50 0,0
11.09.2019 17:00:00 18,1 11,9 38 20 54 29 SSW 1016,6 44 0,0
11.09.2019 16:00:00 17,9 11,9 40 22 51 27 SSW 1017,0 36 0,0
11.09.2019 15:00:00 18,8 13,4 38 20 45 24 SSW 1017,4 25 0,0
11.09.2019 14:00:00 18,5 13,4 35 19 43 23 SSW 1017,7 26 0,0
11.09.2019 13:00:00 17,6 11,6 31 17 41 22 SW 1018,0 36 0,0
11.09.2019 12:00:00 17,3 11,6 32 18 46 25 SW 1018,0 41 0,0
11.09.2019 11:00:00 16,3 12,3 34 19 47 25 SW 1018,0 49 0,0
11.09.2019 10:00:00 16,0 12,2 34 19 42 23 WSW 1017,8 48 0,0
11.09.2019 09:00:00 15,5 12,6 35 19 42 23 WSW 1017,4 43 0,0
11.09.2019 08:00:00 15,0 12,7 30 16 44 24 W 1017,1 43 0,0
11.09.2019 07:00:00 14,5 12,0 36 20 49 26 W 1016,7 45 0,0
11.09.2019 06:00:00 14,4 12,3 39 21 50 27 W 1016,2 38 0,0
11.09.2019 05:00:00 14,7 12,4 39 21 52 28 W 1015,5 36 0,0
11.09.2019 04:00:00 14,9 12,8 41 22 57 31 W 1015,0 30 0,0
11.09.2019 03:00:00 15,2 13,2 46 25 57 31 W 1014,7 26 0,0
11.09.2019 02:00:00 15,3 13,8 41 22 51 28 W 1014,0 26 0,0
11.09.2019 01:00:00 15,5 14,0 40 22 53 29 W 1013,4 18 0,0
11.09.2019 00:00:00 15,6 14,3 43 23 52 28 W 1012,8 30 0,0
10.09.2019 23:00:00 15,5 14,7 37 20 56 31 W 1012,3 8 0,0
10.09.2019 22:00:00 15,5 14,5 46 25 61 33 W 1011,6 15 0,0
10.09.2019 21:00:00 15,6 15,1 45 24 59 32 WNW 1010,9 39 1,1
10.09.2019 20:00:00 15,7 15,5 46 25 61 33 WNW 1010,0 9 0,7
10.09.2019 19:00:00 15,9 15,6 49 26 63 34 WNW 1009,3 6 0,2
10.09.2019 18:00:00 16,8 15,7 38 21 49 26 WNW 1008,6 41 0,0
10.09.2019 17:00:00 17,3 16,2 33 18 41 22 WNW 1008,0 34 0,0
10.09.2019 16:00:00 17,3 16,2 34 19 39 21 WNW 1007,5 39 0,0
10.09.2019 15:00:00 17,5 16,4 32 18 40 21 NW 1007,3 44 0,0
10.09.2019 14:00:00 17,3 16,8 34 19 43 23 NW 1006,7 29 0,0
10.09.2019 13:00:00 16,9 16,7 31 17 37 20 NW 1006,4 44 0,0
10.09.2019 12:00:00 16,3 16,1 23 12 26 14 WNW 1006,4 13 5,4
10.09.2019 11:00:00 16,5 16,3 19 11 28 15 NW 1006,6 4,4 7,9
10.09.2019 10:00:00 16,5 16,3 18 10 22 12 NNW 1006,4 2,1 5,1
10.09.2019 09:00:00 16,4 16,2 16 9 19 10 NNW 1006,3 16 0,0
10.09.2019 08:00:00 16,2 16,0 9 5 20 11 N 1006,4 9 0,0
10.09.2019 07:00:00 15,8 15,6 5 3 14 7 NE 1006,6 3,1 0,1
10.09.2019 06:00:00 15,8 15,6 9 5 - - NE 1006,6 3,1 0,6
10.09.2019 05:00:00 15,5 15,3 10 5 16 9 NE 1006,5 2,1 1,3
10.09.2019 04:00:00 15,5 15,3 6 3 10 5 NE 1007,3 1,3 3,5
10.09.2019 03:00:00 15,5 15,3 5 3 16 9 NE 1008,1 3,4 0,0
10.09.2019 02:00:00 15,6 15,4 9 5 15 8 ENE 1008,4 5 0,0
10.09.2019 01:00:00 15,5 15,3 11 6 17 9 ENE 1008,7 5 0,0
10.09.2019 00:00:00 15,2 15,0 9 5 14 7 NE 1008,5 8 0,0
09.09.2019 23:00:00 15,1 14,9 11 6 22 12 ENE 1009,1 15 0,0
09.09.2019 22:00:00 14,8 14,5 14 7 22 12 NE 1009,3 12 -
09.09.2019 21:00:00 14,9 14,7 14 8 29 15 NE 1009,9 29 0,0
09.09.2019 20:00:00 14,9 14,6 13 7 29 15 NNE 1010,0 6 0,6
09.09.2019 19:00:00 15,5 15,2 15 8 28 15 ENE 1010,4 20 0,5
09.09.2019 18:00:00 15,7 15,2 11 6 20 11 NE 1010,8 10 0,5
09.09.2019 17:00:00 15,8 15,0 14 8 23 13 NE 1011,0 8 0,2
09.09.2019 16:00:00 15,9 14,8 16 8 24 13 NE 1011,3 12 0,5
09.09.2019 15:00:00 16,8 15,1 12 6 21 11 NE 1011,7 19 0,1
09.09.2019 14:00:00 16,3 14,8 8 4 27 15 NE 1012,5 35 0,2
09.09.2019 13:00:00 17,7 13,2 14 8 28 15 NE 1012,7 37 0,0
09.09.2019 12:00:00 17,8 13,5 18 10 23 13 N 1013,3 46 0,0

tt = Température de l'air
td = dewpoint
ff = Vitesse du vent
fx = gusts
dd = Direction du vent
ppp = reduced air pressure
vv = visibility
rr = Quantités de précipitations

stations d'obs. à proximité